Location: Treviso
(45.6669°N, 12.2430°E)
Time: 01:06:17
(UTC+01:00)

ISS - Pass Details

Date: 11 March 2026
Orbit: 416 x 426 km, 51.6° (Epoch: 9 March)

Event Time Altitude Azimuth Distance (km) Brightness Sun altitude
Rises 19:41:21 0° 219° (SW) 2,370 0.4 -16.4°
Reaches altitude 10° 19:43:32 10° 211° (SSW) 1,507 -0.7 -16.8°
Enters shadow 19:46:25 36° 155° (SSE) 688 -3.0 -17.3°
